Location: ??????????
(54.4061°N, 22.6114°E)
Time: 09:37:55
(UTC+00:00)

SPOT 3 Rocket - Pass Details

Date: 23 October 2019
Orbit: 779 x 794 km, 98.8° (Epoch: 21 November)

Event Time Altitude Azimuth Distance (km) Brightness Sun altitude
Exits shadow 17:25:18 38° 109° (ESE) 1,196 4.0 -19.7°
Maximum altitude 17:26:46 49° 65° (ENE) 1,019 3.8 -19.9°
Drops below altitude 10° 17:31:48 10° 352° (N) 2,375 6.2 -20.6°
Sets 17:34:12 0° 347° (NNW) 3,310 7.1 -21.0°
